WXM80 ListenWXM80 Stop

You find our weather info also at:

UK Metoffice

WeatherCloud

Weather Underground

Northeastern Weather Network

AWEKAS

Citizen Weather Observer Program (CWOP)

HAMweather, WeatherForYou, PWS Weather


Weather Underground History page Text

Daily Summary for January 5, 2018 Units:  Both    English   Metric
« Previous Day
Next Day »
Daily Weekly Monthly Yearly Custom
  High: Low: Average:
Temperature: TemperatureF °F /  -17.8 °C 10.1 °F /  -12.2 °C 13.1 °F /  -10.5 °C
Dew Point: DewpointF °F /  -17.8 °C -0.3 °F /  -17.9 °C 6.8 °F /  -14 °C
Humidity: Humidity % 61 % 76 %
Wind Speed: WindSpeedMPH mph /  0 km/h - 10.3 mph /  16.6 km/h
Wind Gust: WindSpeedGustMPH mph /  0 km/h - -
Wind:- - West
Pressure: PressureIn in /  0 hPa 29.49 in /  998.5 hPa -
Precipitation: 0.00 in /  0 mm    
Historical Graphs
 
 
Tabular Data for January 5, 2018
Time Temperature Dew Point Pressure Wind Wind Speed Wind Gust Humidity Rainfall Rate (Hourly)
TemperatureF °F /  -17.8 °C DewpointF °F /  -17.8 °C PressureIn in /  0 hPa Calm     Humidity % HourlyPrecipIn in /  0 mm
00:01 19.7 °F /  -6.8 °C 17.8 °F /  -7.9 °C 29.49 in /  998.5 hPa NNW 9.6 mph /  15.4 km/h 18.4 mph /  29.6 km/h 92 % 0.00 in /  0 mm
00:02 19.7 °F /  -6.8 °C 17.8 °F /  -7.9 °C 29.49 in /  998.5 hPa West 6.5 mph /  10.5 km/h 19.6 mph /  31.5 km/h 92 % 0.00 in /  0 mm
00:07 19.7 °F /  -6.8 °C 17.8 °F /  -7.9 °C 29.49 in /  998.5 hPa WNW 9.0 mph /  14.5 km/h 16.1 mph /  25.9 km/h 92 % 0.00 in /  0 mm
00:12 19.7 °F /  -6.8 °C 17.5 °F /  -8.1 °C 29.49 in /  998.5 hPa WNW 9.4 mph /  15.1 km/h 18.4 mph /  29.6 km/h 91 % 0.00 in /  0 mm
00:14 19.6 °F /  -6.9 °C 17.4 °F /  -8.1 °C 29.49 in /  998.5 hPa SW 9.7 mph /  15.6 km/h 16.1 mph /  25.9 km/h 91 % 0.00 in /  0 mm
00:19 19.5 °F /  -6.9 °C 17.3 °F /  -8.2 °C 29.49 in /  998.5 hPa WNW 10.9 mph /  17.5 km/h 19.6 mph /  31.5 km/h 91 % 0.00 in /  0 mm
00:20 19.4 °F /  -7 °C 17.2 °F /  -8.2 °C 29.49 in /  998.5 hPa West 7.9 mph /  12.7 km/h 21.9 mph /  35.2 km/h 91 % 0.00 in /  0 mm
00:23 19.4 °F /  -7 °C 17.2 °F /  -8.2 °C 29.50 in /  998.9 hPa West 14.0 mph /  22.5 km/h 23.0 mph /  37 km/h 91 % 0.00 in /  0 mm
00:26 19.3 °F /  -7.1 °C 17.1 °F /  -8.3 °C 29.50 in /  998.9 hPa WNW 11.7 mph /  18.8 km/h 21.9 mph /  35.2 km/h 91 % 0.00 in /  0 mm
00:32 19.2 °F /  -7.1 °C 17.0 °F /  -8.3 °C 29.50 in /  998.9 hPa NW 9.4 mph /  15.1 km/h 19.6 mph /  31.5 km/h 91 % 0.00 in /  0 mm
00:34 19.1 °F /  -7.2 °C 16.9 °F /  -8.4 °C 29.50 in /  998.9 hPa West 8.6 mph /  13.8 km/h 17.3 mph /  27.8 km/h 91 % 0.00 in /  0 mm
00:39 19.0 °F /  -7.2 °C 16.8 °F /  -8.4 °C 29.51 in /  999.2 hPa West 10.1 mph /  16.3 km/h 17.3 mph /  27.8 km/h 91 % 0.00 in /  0 mm
00:40 19.0 °F /  -7.2 °C 16.8 °F /  -8.4 °C 29.51 in /  999.2 hPa WNW 10.0 mph /  16.1 km/h 19.6 mph /  31.5 km/h 91 % 0.00 in /  0 mm
00:45 18.9 °F /  -7.3 °C 16.7 °F /  -8.5 °C 29.51 in /  999.2 hPa WNW 7.2 mph /  11.6 km/h 18.4 mph /  29.6 km/h 91 % 0.00 in /  0 mm
00:50 18.8 °F /  -7.3 °C 16.6 °F /  -8.6 °C 29.51 in /  999.2 hPa WNW 17.1 mph /  27.5 km/h 23.0 mph /  37 km/h 91 % 0.00 in /  0 mm
00:56 18.6 °F /  -7.4 °C 16.2 °F /  -8.8 °C 29.51 in /  999.2 hPa WNW 11.0 mph /  17.7 km/h 21.9 mph /  35.2 km/h 90 % 0.00 in /  0 mm
01:01 18.5 °F /  -7.5 °C 16.1 °F /  -8.8 °C 29.51 in /  999.2 hPa WSW 11.3 mph /  18.2 km/h 21.9 mph /  35.2 km/h 90 % 0.00 in /  0 mm
01:07 18.4 °F /  -7.6 °C 16.0 °F /  -8.9 °C 29.51 in /  999.2 hPa SW 12.3 mph /  19.8 km/h 25.3 mph /  40.7 km/h 90 % 0.00 in /  0 mm
01:13 18.4 °F /  -7.6 °C 16.0 °F /  -8.9 °C 29.52 in /  999.5 hPa West 10.7 mph /  17.2 km/h 23.0 mph /  37 km/h 90 % 0.00 in /  0 mm
01:18 18.2 °F /  -7.7 °C 15.8 °F /  -9 °C 29.52 in /  999.5 hPa WSW 7.4 mph /  11.9 km/h 10.0 mph /  16.1 km/h 90 % 0.00 in /  0 mm
01:22 18.2 °F /  -7.7 °C 15.8 °F /  -9 °C 29.52 in /  999.5 hPa West 9.9 mph /  15.9 km/h 22.0 mph /  35.4 km/h 90 % 0.00 in /  0 mm
01:27 18.0 °F /  -7.8 °C 15.6 °F /  -9.1 °C 29.53 in /  999.9 hPa WSW 10.0 mph /  16.1 km/h 20.7 mph /  33.3 km/h 90 % 0.00 in /  0 mm
01:32 17.9 °F /  -7.8 °C 15.5 °F /  -9.2 °C 29.52 in /  999.5 hPa West 10.7 mph /  17.2 km/h 17.3 mph /  27.8 km/h 90 % 0.00 in /  0 mm
01:35 17.8 °F /  -7.9 °C 15.1 °F /  -9.4 °C 29.52 in /  999.5 hPa WNW 12.2 mph /  19.6 km/h 19.6 mph /  31.5 km/h 89 % 0.00 in /  0 mm
01:40 17.7 °F /  -7.9 °C 15.0 °F /  -9.4 °C 29.53 in /  999.9 hPa West 11.1 mph /  17.9 km/h 21.9 mph /  35.2 km/h 89 % 0.00 in /  0 mm
01:45 17.6 °F /  -8 °C 14.9 °F /  -9.5 °C 29.54 in /  1000.2 hPa NW 9.4 mph /  15.1 km/h 18.0 mph /  29 km/h 89 % 0.00 in /  0 mm
01:46 17.6 °F /  -8 °C 14.9 °F /  -9.5 °C 29.53 in /  999.9 hPa West 11.5 mph /  18.5 km/h 18.4 mph /  29.6 km/h 89 % 0.00 in /  0 mm
01:47 17.5 °F /  -8.1 °C 14.8 °F /  -9.6 °C 29.53 in /  999.9 hPa WNW 7.7 mph /  12.4 km/h 18.4 mph /  29.6 km/h 89 % 0.00 in /  0 mm
01:52 17.5 °F /  -8.1 °C 14.8 °F /  -9.6 °C 29.54 in /  1000.2 hPa NW 7.5 mph /  12.1 km/h 26.0 mph /  41.8 km/h 89 % 0.00 in /  0 mm
02:02 17.2 °F /  -8.2 °C 14.5 °F /  -9.7 °C 29.54 in /  1000.2 hPa WNW 14.8 mph /  23.8 km/h 27.6 mph /  44.4 km/h 89 % 0.00 in /  0 mm
02:05 17.1 °F /  -8.3 °C 14.4 °F /  -9.8 °C 29.54 in /  1000.2 hPa West 8.9 mph /  14.3 km/h 18.4 mph /  29.6 km/h 89 % 0.00 in /  0 mm
02:11 17.0 °F /  -8.3 °C 14.3 °F /  -9.8 °C 29.54 in /  1000.2 hPa West 10.0 mph /  16.1 km/h 24.0 mph /  38.6 km/h 89 % 0.00 in /  0 mm
02:16 16.8 °F /  -8.4 °C 14.1 °F /  -9.9 °C 29.54 in /  1000.2 hPa WSW 10.0 mph /  16.1 km/h 17.3 mph /  27.8 km/h 89 % 0.00 in /  0 mm
02:19 16.7 °F /  -8.5 °C 13.8 °F /  -10.1 °C 29.55 in /  1000.6 hPa NW 17.7 mph /  28.5 km/h 23.0 mph /  37 km/h 88 % 0.00 in /  0 mm
02:24 16.5 °F /  -8.6 °C 13.8 °F /  -10.1 °C 29.55 in /  1000.6 hPa NW 9.9 mph /  15.9 km/h 18.4 mph /  29.6 km/h 89 % 0.00 in /  0 mm
02:29 16.4 °F /  -8.7 °C 13.7 °F /  -10.2 °C 29.55 in /  1000.6 hPa West 11.3 mph /  18.2 km/h 22.0 mph /  35.4 km/h 89 % 0.00 in /  0 mm
02:34 16.3 °F /  -8.7 °C 13.4 °F /  -10.3 °C 29.55 in /  1000.6 hPa SW 9.7 mph /  15.6 km/h 19.6 mph /  31.5 km/h 88 % 0.00 in /  0 mm
02:39 16.2 °F /  -8.8 °C 13.3 °F /  -10.4 °C 29.55 in /  1000.6 hPa NNW 13.3 mph /  21.4 km/h 25.3 mph /  40.7 km/h 88 % 0.00 in /  0 mm
02:44 16.0 °F /  -8.9 °C 13.1 °F /  -10.5 °C 29.57 in /  1001.2 hPa SW 10.4 mph /  16.7 km/h 20.7 mph /  33.3 km/h 88 % 0.00 in /  0 mm
02:48 15.9 °F /  -8.9 °C 13.0 °F /  -10.6 °C 29.57 in /  1001.2 hPa West 13.4 mph /  21.6 km/h 24.2 mph /  38.9 km/h 88 % 0.00 in /  0 mm
02:53 15.9 °F /  -8.9 °C 13.0 °F /  -10.6 °C 29.56 in /  1000.9 hPa NW 11.3 mph /  18.2 km/h 27.6 mph /  44.4 km/h 88 % 0.00 in /  0 mm
02:56 15.8 °F /  -9 °C 12.9 °F /  -10.6 °C 29.56 in /  1000.9 hPa West 8.3 mph /  13.4 km/h 18.4 mph /  29.6 km/h 88 % 0.00 in /  0 mm
02:57 15.8 °F /  -9 °C 12.9 °F /  -10.6 °C 29.57 in /  1001.2 hPa West 9.3 mph /  15 km/h 20.7 mph /  33.3 km/h 88 % 0.00 in /  0 mm
03:02 15.6 °F /  -9.1 °C 12.7 °F /  -10.7 °C 29.57 in /  1001.2 hPa NW 11.1 mph /  17.9 km/h 24.0 mph /  38.6 km/h 88 % 0.00 in /  0 mm
03:07 15.5 °F /  -9.2 °C 12.6 °F /  -10.8 °C 29.57 in /  1001.2 hPa West 7.2 mph /  11.6 km/h 19.6 mph /  31.5 km/h 88 % 0.00 in /  0 mm
03:09 15.4 °F /  -9.2 °C 12.5 °F /  -10.8 °C 29.57 in /  1001.2 hPa WNW 15.3 mph /  24.6 km/h 26.5 mph /  42.6 km/h 88 % 0.00 in /  0 mm
03:14 15.3 °F /  -9.3 °C 12.4 °F /  -10.9 °C 29.57 in /  1001.2 hPa West 14.7 mph /  23.7 km/h 24.2 mph /  38.9 km/h 88 % 0.00 in /  0 mm
03:15 15.3 °F /  -9.3 °C 12.4 °F /  -10.9 °C 29.57 in /  1001.2 hPa WNW 10.5 mph /  16.9 km/h 19.6 mph /  31.5 km/h 88 % 0.00 in /  0 mm
03:17 15.3 °F /  -9.3 °C 12.4 °F /  -10.9 °C 29.57 in /  1001.2 hPa WSW 12.7 mph /  20.4 km/h 21.9 mph /  35.2 km/h 88 % 0.00 in /  0 mm
03:22 15.1 °F /  -9.4 °C 12.2 °F /  -11 °C 29.58 in /  1001.6 hPa West 12.0 mph /  19.3 km/h 25.3 mph /  40.7 km/h 88 % 0.00 in /  0 mm
03:27 15.0 °F /  -9.4 °C 12.1 °F /  -11.1 °C 29.57 in /  1001.2 hPa WNW 8.4 mph /  13.5 km/h 23.0 mph /  37 km/h 88 % 0.00 in /  0 mm
03:30 15.0 °F /  -9.4 °C 12.1 °F /  -11.1 °C 29.57 in /  1001.2 hPa West 10.8 mph /  17.4 km/h 19.0 mph /  30.6 km/h 88 % 0.00 in /  0 mm
03:35 14.9 °F /  -9.5 °C 12.0 °F /  -11.1 °C 29.57 in /  1001.2 hPa NW 9.0 mph /  14.5 km/h 9.2 mph /  14.8 km/h 88 % 0.00 in /  0 mm
03:39 14.9 °F /  -9.5 °C 12.0 °F /  -11.1 °C 29.58 in /  1001.6 hPa WNW 8.5 mph /  13.7 km/h 16.1 mph /  25.9 km/h 88 % 0.00 in /  0 mm
03:44 14.9 °F /  -9.5 °C 12.0 °F /  -11.1 °C 29.59 in /  1001.9 hPa WNW 8.7 mph /  14 km/h 13.0 mph /  20.9 km/h 88 % 0.00 in /  0 mm
03:46 14.9 °F /  -9.5 °C 12.0 °F /  -11.1 °C 29.58 in /  1001.6 hPa West 11.9 mph /  19.2 km/h 21.9 mph /  35.2 km/h 88 % 0.00 in /  0 mm
03:51 14.7 °F /  -9.6 °C 11.5 °F /  -11.4 °C 29.59 in /  1001.9 hPa SSW 11.4 mph /  18.3 km/h 20.7 mph /  33.3 km/h 87 % 0.00 in /  0 mm
03:56 14.5 °F /  -9.7 °C 11.6 °F /  -11.3 °C 29.59 in /  1001.9 hPa WNW 12.5 mph /  20.1 km/h 24.0 mph /  38.6 km/h 88 % 0.00 in /  0 mm
04:01 14.4 °F /  -9.8 °C 11.2 °F /  -11.6 °C 29.59 in /  1001.9 hPa West 6.2 mph /  10 km/h 18.4 mph /  29.6 km/h 87 % 0.00 in /  0 mm
04:06 14.3 °F /  -9.8 °C 11.1 °F /  -11.6 °C 29.60 in /  1002.3 hPa WSW 8.9 mph /  14.3 km/h 19.6 mph /  31.5 km/h 87 % 0.00 in /  0 mm
04:07 14.3 °F /  -9.8 °C 11.1 °F /  -11.6 °C 29.60 in /  1002.3 hPa SW 11.1 mph /  17.9 km/h 18.4 mph /  29.6 km/h 87 % 0.00 in /  0 mm
04:12 14.1 °F /  -9.9 °C 10.9 °F /  -11.7 °C 29.60 in /  1002.3 hPa WNW 12.6 mph /  20.3 km/h 17.3 mph /  27.8 km/h 87 % 0.00 in /  0 mm
04:17 14.0 °F /  -10 °C 10.8 °F /  -11.8 °C 29.61 in /  1002.6 hPa WNW 10.0 mph /  16.1 km/h 12.7 mph /  20.4 km/h 87 % 0.00 in /  0 mm
04:22 13.7 °F /  -10.2 °C 10.5 °F /  -11.9 °C 29.61 in /  1002.6 hPa WNW 7.2 mph /  11.6 km/h 21.9 mph /  35.2 km/h 87 % 0.00 in /  0 mm
04:28 13.6 °F /  -10.2 °C 10.5 °F /  -11.9 °C 29.61 in /  1002.6 hPa WNW 12.4 mph /  20 km/h 17.3 mph /  27.8 km/h 87 % 0.00 in /  0 mm
04:32 13.5 °F /  -10.3 °C 10.1 °F /  -12.2 °C 29.62 in /  1002.9 hPa SW 10.2 mph /  16.4 km/h 26.5 mph /  42.6 km/h 86 % 0.00 in /  0 mm
04:37 13.4 °F /  -10.3 °C 10.0 °F /  -12.2 °C 29.62 in /  1002.9 hPa NW 11.6 mph /  18.7 km/h 23.0 mph /  37 km/h 86 % 0.00 in /  0 mm
04:42 13.2 °F /  -10.4 °C 9.8 °F /  -12.3 °C 29.61 in /  1002.6 hPa WNW 13.8 mph /  22.2 km/h 21.9 mph /  35.2 km/h 86 % 0.00 in /  0 mm
04:47 13.1 °F /  -10.5 °C 9.7 °F /  -12.4 °C 29.62 in /  1002.9 hPa WNW 8.4 mph /  13.5 km/h 13.0 mph /  20.9 km/h 86 % 0.00 in /  0 mm
04:50 13.0 °F /  -10.6 °C 9.6 °F /  -12.4 °C 29.62 in /  1002.9 hPa WSW 4.9 mph /  7.9 km/h 19.6 mph /  31.5 km/h 86 % 0.00 in /  0 mm
04:56 12.9 °F /  -10.6 °C 9.8 °F /  -12.3 °C 29.62 in /  1002.9 hPa West 8.0 mph /  12.9 km/h 32.0 mph /  51.5 km/h 87 % 0.00 in /  0 mm
04:57 12.9 °F /  -10.6 °C 9.5 °F /  -12.5 °C 29.62 in /  1002.9 hPa WSW 7.3 mph /  11.7 km/h 32.2 mph /  51.8 km/h 86 % 0.00 in /  0 mm
05:02 12.8 °F /  -10.7 °C 9.4 °F /  -12.6 °C 29.63 in /  1003.3 hPa West 6.8 mph /  10.9 km/h 13.8 mph /  22.2 km/h 86 % 0.00 in /  0 mm
05:03 12.8 °F /  -10.7 °C 9.4 °F /  -12.6 °C 29.63 in /  1003.3 hPa West 8.8 mph /  14.2 km/h 15.0 mph /  24.1 km/h 86 % 0.00 in /  0 mm
05:08 12.7 °F /  -10.7 °C 9.3 °F /  -12.6 °C 29.63 in /  1003.3 hPa NNW 13.9 mph /  22.4 km/h 25.3 mph /  40.7 km/h 86 % 0.00 in /  0 mm
05:13 12.7 °F /  -10.7 °C 9.3 °F /  -12.6 °C 29.63 in /  1003.3 hPa SW 7.5 mph /  12.1 km/h 17.3 mph /  27.8 km/h 86 % 0.00 in /  0 mm
05:18 12.6 °F /  -10.8 °C 9.2 °F /  -12.7 °C 29.64 in /  1003.6 hPa WNW 5.8 mph /  9.3 km/h 23.0 mph /  37 km/h 86 % 0.00 in /  0 mm
05:23 12.6 °F /  -10.8 °C 9.2 °F /  -12.7 °C 29.64 in /  1003.6 hPa West 11.7 mph /  18.8 km/h 18.4 mph /  29.6 km/h 86 % 0.00 in /  0 mm
05:28 12.4 °F /  -10.9 °C 8.7 °F /  -12.9 °C 29.64 in /  1003.6 hPa SW 7.9 mph /  12.7 km/h 12.7 mph /  20.4 km/h 85 % 0.00 in /  0 mm
05:34 12.3 °F /  -10.9 °C 8.7 °F /  -12.9 °C 29.65 in /  1003.9 hPa WNW 12.3 mph /  19.8 km/h 21.0 mph /  33.8 km/h 85 % 0.00 in /  0 mm
05:38 12.2 °F /  -11 °C 8.6 °F /  -13 °C 29.65 in /  1003.9 hPa SW 6.7 mph /  10.8 km/h 15.0 mph /  24.1 km/h 85 % 0.00 in /  0 mm
05:43 12.1 °F /  -11.1 °C 8.5 °F /  -13.1 °C 29.65 in /  1003.9 hPa West 7.2 mph /  11.6 km/h 17.3 mph /  27.8 km/h 85 % 0.00 in /  0 mm
05:49 11.9 °F /  -11.2 °C 8.3 °F /  -13.2 °C 29.66 in /  1004.3 hPa WSW 8.4 mph /  13.5 km/h 17.0 mph /  27.4 km/h 85 % 0.00 in /  0 mm
05:50 11.9 °F /  -11.2 °C 8.3 °F /  -13.2 °C 29.66 in /  1004.3 hPa NW 12.2 mph /  19.6 km/h 16.1 mph /  25.9 km/h 85 % 0.00 in /  0 mm
05:56 11.8 °F /  -11.2 °C 8.2 °F /  -13.2 °C 29.66 in /  1004.3 hPa WNW 10.0 mph /  16.1 km/h 26.0 mph /  41.8 km/h 85 % 0.00 in /  0 mm
05:59 11.7 °F /  -11.3 °C 8.1 °F /  -13.3 °C 29.66 in /  1004.3 hPa WNW 12.4 mph /  20 km/h 24.2 mph /  38.9 km/h 85 % 0.00 in /  0 mm
06:04 11.7 °F /  -11.3 °C 8.1 °F /  -13.3 °C 29.67 in /  1004.6 hPa NW 9.5 mph /  15.3 km/h 21.9 mph /  35.2 km/h 85 % 0.00 in /  0 mm
06:09 11.5 °F /  -11.4 °C 7.9 °F /  -13.4 °C 29.67 in /  1004.6 hPa WNW 14.0 mph /  22.5 km/h 28.8 mph /  46.3 km/h 85 % 0.00 in /  0 mm
06:14 11.4 °F /  -11.4 °C 7.8 °F /  -13.4 °C 29.67 in /  1004.6 hPa WNW 7.8 mph /  12.6 km/h 16.1 mph /  25.9 km/h 85 % 0.00 in /  0 mm
06:19 11.4 °F /  -11.4 °C 8.0 °F /  -13.3 °C 29.67 in /  1004.6 hPa West 7.7 mph /  12.4 km/h 19.6 mph /  31.5 km/h 86 % 0.00 in /  0 mm
06:24 11.3 °F /  -11.5 °C 7.7 °F /  -13.5 °C 29.68 in /  1005 hPa NW 7.3 mph /  11.7 km/h 15.0 mph /  24.1 km/h 85 % 0.00 in /  0 mm
06:28 11.2 °F /  -11.6 °C 7.6 °F /  -13.6 °C 29.68 in /  1005 hPa West 8.6 mph /  13.8 km/h 17.0 mph /  27.4 km/h 85 % 0.00 in /  0 mm
06:33 11.0 °F /  -11.7 °C 7.4 °F /  -13.7 °C 29.69 in /  1005.3 hPa WSW 11.1 mph /  17.9 km/h 21.9 mph /  35.2 km/h 85 % 0.00 in /  0 mm
06:34 11.0 °F /  -11.7 °C 7.4 °F /  -13.7 °C 29.68 in /  1005 hPa West 10.9 mph /  17.5 km/h 18.0 mph /  29 km/h 85 % 0.00 in /  0 mm
06:39 11.0 °F /  -11.7 °C 7.4 °F /  -13.7 °C 29.68 in /  1005 hPa WNW 14.8 mph /  23.8 km/h 27.6 mph /  44.4 km/h 85 % 0.00 in /  0 mm
06:43 10.9 °F /  -11.7 °C 7.3 °F /  -13.7 °C 29.69 in /  1005.3 hPa NW 11.3 mph /  18.2 km/h 26.5 mph /  42.6 km/h 85 % 0.00 in /  0 mm
06:47 10.9 °F /  -11.7 °C 7.3 °F /  -13.7 °C 29.69 in /  1005.3 hPa WSW 5.5 mph /  8.9 km/h 26.5 mph /  42.6 km/h 85 % 0.00 in /  0 mm
06:49 10.9 °F /  -11.7 °C 7.3 °F /  -13.7 °C 29.69 in /  1005.3 hPa WSW 8.7 mph /  14 km/h 18.4 mph /  29.6 km/h 85 % 0.00 in /  0 mm
06:54 10.9 °F /  -11.7 °C 7.3 °F /  -13.7 °C 29.69 in /  1005.3 hPa WSW 14.2 mph /  22.9 km/h 21.0 mph /  33.8 km/h 85 % 0.00 in /  0 mm
06:55 10.9 °F /  -11.7 °C 7.3 °F /  -13.7 °C 29.69 in /  1005.3 hPa West 10.9 mph /  17.5 km/h 24.2 mph /  38.9 km/h 85 % 0.00 in /  0 mm
07:00 10.8 °F /  -11.8 °C 7.2 °F /  -13.8 °C 29.70 in /  1005.6 hPa WNW 12.4 mph /  20 km/h 18.4 mph /  29.6 km/h 85 % 0.00 in /  0 mm
07:02 10.8 °F /  -11.8 °C 7.2 °F /  -13.8 °C 29.69 in /  1005.3 hPa West 12.1 mph /  19.5 km/h 21.9 mph /  35.2 km/h 85 % 0.00 in /  0 mm
07:07 10.7 °F /  -11.8 °C 7.1 °F /  -13.8 °C 29.70 in /  1005.6 hPa WSW 10.0 mph /  16.1 km/h 20.7 mph /  33.3 km/h 85 % 0.00 in /  0 mm
07:17 10.6 °F /  -11.9 °C 7.0 °F /  -13.9 °C 29.70 in /  1005.6 hPa West 11.1 mph /  17.9 km/h 19.6 mph /  31.5 km/h 85 % 0.00 in /  0 mm
07:20 10.5 °F /  -11.9 °C 6.6 °F /  -14.1 °C 29.71 in /  1006 hPa West 9.6 mph /  15.4 km/h 25.3 mph /  40.7 km/h 84 % 0.00 in /  0 mm
07:25 10.5 °F /  -11.9 °C 6.9 °F /  -13.9 °C 29.71 in /  1006 hPa West 6.7 mph /  10.8 km/h 11.5 mph /  18.5 km/h 85 % 0.00 in /  0 mm
07:26 10.5 °F /  -11.9 °C 6.9 °F /  -13.9 °C 29.71 in /  1006 hPa West 10.1 mph /  16.3 km/h 15.0 mph /  24.1 km/h 85 % 0.00 in /  0 mm
07:31 10.4 °F /  -12 °C 6.5 °F /  -14.2 °C 29.71 in /  1006 hPa NNW 8.4 mph /  13.5 km/h 21.9 mph /  35.2 km/h 84 % 0.00 in /  0 mm
07:36 10.3 °F /  -12.1 °C 6.4 °F /  -14.2 °C 29.71 in /  1006 hPa WSW 9.7 mph /  15.6 km/h 15.0 mph /  24.1 km/h 84 % 0.00 in /  0 mm
07:41 10.2 °F /  -12.1 °C 6.3 °F /  -14.3 °C 29.71 in /  1006 hPa WSW 8.2 mph /  13.2 km/h 16.1 mph /  25.9 km/h 84 % 0.00 in /  0 mm
07:47 10.2 °F /  -12.1 °C 6.1 °F /  -14.4 °C 29.72 in /  1006.3 hPa NW 10.2 mph /  16.4 km/h 19.6 mph /  31.5 km/h 83 % 0.00 in /  0 mm
07:52 10.2 °F /  -12.1 °C 6.1 °F /  -14.4 °C 29.72 in /  1006.3 hPa SW 12.4 mph /  20 km/h 21.0 mph /  33.8 km/h 83 % 0.00 in /  0 mm
07:53 10.2 °F /  -12.1 °C 6.1 °F /  -14.4 °C 29.72 in /  1006.3 hPa West 10.2 mph /  16.4 km/h 20.7 mph /  33.3 km/h 83 % 0.00 in /  0 mm
07:58 10.1 °F /  -12.2 °C 6.2 °F /  -14.3 °C 29.72 in /  1006.3 hPa West 9.4 mph /  15.1 km/h 16.1 mph /  25.9 km/h 84 % 0.00 in /  0 mm
08:04 10.1 °F /  -12.2 °C 6.2 °F /  -14.3 °C 29.73 in /  1006.7 hPa West 10.6 mph /  17.1 km/h 18.4 mph /  29.6 km/h 84 % 0.00 in /  0 mm
08:08 10.1 °F /  -12.2 °C 6.2 °F /  -14.3 °C 29.72 in /  1006.3 hPa WNW 10.3 mph /  16.6 km/h 18.4 mph /  29.6 km/h 84 % 0.00 in /  0 mm
08:14 10.1 °F /  -12.2 °C 6.2 °F /  -14.3 °C 29.73 in /  1006.7 hPa NW 6.0 mph /  9.7 km/h 11.5 mph /  18.5 km/h 84 % 0.00 in /  0 mm
08:19 10.1 °F /  -12.2 °C 6.2 °F /  -14.3 °C 29.73 in /  1006.7 hPa West 9.0 mph /  14.5 km/h 21.0 mph /  33.8 km/h 84 % 0.00 in /  0 mm
08:24 10.2 °F /  -12.1 °C 6.3 °F /  -14.3 °C 29.73 in /  1006.7 hPa West 11.6 mph /  18.7 km/h 27.6 mph /  44.4 km/h 84 % 0.00 in /  0 mm
08:29 10.1 °F /  -12.2 °C 6.2 °F /  -14.3 °C 29.74 in /  1007 hPa West 11.7 mph /  18.8 km/h 20.0 mph /  32.2 km/h 84 % 0.00 in /  0 mm
08:34 10.2 °F /  -12.1 °C 6.1 °F /  -14.4 °C 29.74 in /  1007 hPa WSW 8.5 mph /  13.7 km/h 17.3 mph /  27.8 km/h 83 % 0.00 in /  0 mm
08:40 10.2 °F /  -12.1 °C 6.1 °F /  -14.4 °C 29.74 in /  1007 hPa WNW 10.3 mph /  16.6 km/h 21.9 mph /  35.2 km/h 83 % 0.00 in /  0 mm
08:43 10.1 °F /  -12.2 °C 6.0 °F /  -14.4 °C 29.73 in /  1006.7 hPa West 7.3 mph /  11.7 km/h 16.1 mph /  25.9 km/h 83 % 0.00 in /  0 mm
08:47 10.2 °F /  -12.1 °C 6.1 °F /  -14.4 °C 29.73 in /  1006.7 hPa WNW 9.4 mph /  15.1 km/h 19.6 mph /  31.5 km/h 83 % 0.00 in /  0 mm
08:52 10.2 °F /  -12.1 °C 6.1 °F /  -14.4 °C 29.74 in /  1007 hPa WSW 10.7 mph /  17.2 km/h 21.9 mph /  35.2 km/h 83 % 0.00 in /  0 mm
08:58 10.2 °F /  -12.1 °C 6.1 °F /  -14.4 °C 29.74 in /  1007 hPa West 8.7 mph /  14 km/h 22.0 mph /  35.4 km/h 83 % 0.00 in /  0 mm
09:03 10.3 °F /  -12.1 °C 6.2 °F /  -14.3 °C 29.75 in /  1007.3 hPa WNW 7.0 mph /  11.3 km/h 15.0 mph /  24.1 km/h 83 % 0.00 in /  0 mm
09:08 10.3 °F /  -12.1 °C 6.2 °F /  -14.3 °C 29.75 in /  1007.3 hPa West 14.4 mph /  23.2 km/h 24.0 mph /  38.6 km/h 83 % 0.00 in /  0 mm
09:09 10.3 °F /  -12.1 °C 6.2 °F /  -14.3 °C 29.74 in /  1007 hPa West 15.7 mph /  25.3 km/h 19.6 mph /  31.5 km/h 83 % 0.00 in /  0 mm
09:14 10.4 °F /  -12 °C 6.0 °F /  -14.4 °C 29.75 in /  1007.3 hPa WSW 9.1 mph /  14.6 km/h 19.6 mph /  31.5 km/h 82 % 0.00 in /  0 mm
09:19 10.7 °F /  -11.8 °C 6.3 °F /  -14.3 °C 29.75 in /  1007.3 hPa WNW 12.8 mph /  20.6 km/h 19.6 mph /  31.5 km/h 82 % 0.00 in /  0 mm
09:24 10.8 °F /  -11.8 °C 6.7 °F /  -14.1 °C 29.75 in /  1007.3 hPa WSW 6.6 mph /  10.6 km/h 15.0 mph /  24.1 km/h 83 % 0.00 in /  0 mm
09:26 10.8 °F /  -11.8 °C 6.7 °F /  -14.1 °C 29.75 in /  1007.3 hPa WNW 9.6 mph /  15.4 km/h 26.5 mph /  42.6 km/h 83 % 0.00 in /  0 mm
09:31 10.9 °F /  -11.7 °C 6.5 °F /  -14.2 °C 29.76 in /  1007.7 hPa West 10.0 mph /  16.1 km/h 23.0 mph /  37 km/h 82 % 0.00 in /  0 mm
09:34 10.9 °F /  -11.7 °C 6.5 °F /  -14.2 °C 29.76 in /  1007.7 hPa WSW 13.8 mph /  22.2 km/h 23.0 mph /  37 km/h 82 % 0.00 in /  0 mm
09:39 10.9 °F /  -11.7 °C 6.2 °F /  -14.3 °C 29.77 in /  1008 hPa NW 12.9 mph /  20.8 km/h 25.3 mph /  40.7 km/h 81 % 0.00 in /  0 mm
09:44 11.0 °F /  -11.7 °C 6.6 °F /  -14.1 °C 29.77 in /  1008 hPa WNW 11.0 mph /  17.7 km/h 19.6 mph /  31.5 km/h 82 % 0.00 in /  0 mm
09:49 11.2 °F /  -11.6 °C 6.8 °F /  -14 °C 29.77 in /  1008 hPa NNW 11.5 mph /  18.5 km/h 26.5 mph /  42.6 km/h 82 % 0.00 in /  0 mm
09:54 11.3 °F /  -11.5 °C 6.9 °F /  -13.9 °C 29.78 in /  1008.4 hPa SW 11.3 mph /  18.2 km/h 21.9 mph /  35.2 km/h 82 % 0.00 in /  0 mm
09:59 11.3 °F /  -11.5 °C 6.9 °F /  -13.9 °C 29.77 in /  1008 hPa West 11.2 mph /  18 km/h 25.3 mph /  40.7 km/h 82 % 0.00 in /  0 mm
10:01 11.3 °F /  -11.5 °C 6.9 °F /  -13.9 °C 29.78 in /  1008.4 hPa WSW 11.9 mph /  19.2 km/h 26.5 mph /  42.6 km/h 82 % 0.00 in /  0 mm
10:06 11.4 °F /  -11.4 °C 7.0 °F /  -13.9 °C 29.77 in /  1008 hPa WNW 9.5 mph /  15.3 km/h 14.0 mph /  22.5 km/h 82 % 0.00 in /  0 mm
10:11 11.6 °F /  -11.3 °C 7.2 °F /  -13.8 °C 29.77 in /  1008 hPa NNW 8.0 mph /  12.9 km/h 19.6 mph /  31.5 km/h 82 % 0.00 in /  0 mm
10:16 11.6 °F /  -11.3 °C 6.9 °F /  -13.9 °C 29.77 in /  1008 hPa NW 11.9 mph /  19.2 km/h 21.9 mph /  35.2 km/h 81 % 0.00 in /  0 mm
10:17 11.6 °F /  -11.3 °C 6.6 °F /  -14.1 °C 29.77 in /  1008 hPa West 8.2 mph /  13.2 km/h 21.9 mph /  35.2 km/h 80 % 0.00 in /  0 mm
10:22 11.7 °F /  -11.3 °C 6.7 °F /  -14.1 °C 29.77 in /  1008 hPa SW 10.7 mph /  17.2 km/h 24.2 mph /  38.9 km/h 80 % 0.00 in /  0 mm
10:27 11.8 °F /  -11.2 °C 6.8 °F /  -14 °C 29.78 in /  1008.4 hPa WSW 10.6 mph /  17.1 km/h 16.1 mph /  25.9 km/h 80 % 0.00 in /  0 mm
10:32 11.8 °F /  -11.2 °C 7.1 °F /  -13.8 °C 29.78 in /  1008.4 hPa West 12.8 mph /  20.6 km/h 19.6 mph /  31.5 km/h 81 % 0.00 in /  0 mm
10:37 11.9 °F /  -11.2 °C 7.2 °F /  -13.8 °C 29.78 in /  1008.4 hPa West 11.8 mph /  19 km/h 18.0 mph /  29 km/h 81 % 0.00 in /  0 mm
10:42 11.9 °F /  -11.2 °C 6.9 °F /  -13.9 °C 29.78 in /  1008.4 hPa SW 11.0 mph /  17.7 km/h 25.3 mph /  40.7 km/h 80 % 0.00 in /  0 mm
10:48 11.9 °F /  -11.2 °C 6.9 °F /  -13.9 °C 29.78 in /  1008.4 hPa SW 6.3 mph /  10.1 km/h 12.7 mph /  20.4 km/h 80 % 0.00 in /  0 mm
10:50 11.9 °F /  -11.2 °C 6.9 °F /  -13.9 °C 29.78 in /  1008.4 hPa WSW 10.8 mph /  17.4 km/h 20.0 mph /  32.2 km/h 80 % 0.00 in /  0 mm
10:55 11.9 °F /  -11.2 °C 7.2 °F /  -13.8 °C 29.78 in /  1008.4 hPa West 11.6 mph /  18.7 km/h 19.6 mph /  31.5 km/h 81 % 0.00 in /  0 mm
11:04 12.1 °F /  -11.1 °C 7.4 °F /  -13.7 °C 29.78 in /  1008.4 hPa WSW 12.1 mph /  19.5 km/h 17.3 mph /  27.8 km/h 81 % 0.00 in /  0 mm
11:09 12.2 °F /  -11 °C 7.2 °F /  -13.8 °C 29.78 in /  1008.4 hPa NW 9.5 mph /  15.3 km/h 20.7 mph /  33.3 km/h 80 % 0.00 in /  0 mm
11:14 12.4 °F /  -10.9 °C 7.7 °F /  -13.5 °C 29.78 in /  1008.4 hPa NW 8.5 mph /  13.7 km/h 20.0 mph /  32.2 km/h 81 % 0.00 in /  0 mm
11:19 12.5 °F /  -10.8 °C 7.5 °F /  -13.6 °C 29.78 in /  1008.4 hPa West 6.1 mph /  9.8 km/h 14.0 mph /  22.5 km/h 80 % 0.00 in /  0 mm
11:24 12.5 °F /  -10.8 °C 7.2 °F /  -13.8 °C 29.78 in /  1008.4 hPa NNW 16.4 mph /  26.4 km/h 20.7 mph /  33.3 km/h 79 % 0.00 in /  0 mm
11:29 12.4 °F /  -10.9 °C 7.1 °F /  -13.8 °C 29.77 in /  1008 hPa WSW 11.0 mph /  17.7 km/h 18.0 mph /  29 km/h 79 % 0.00 in /  0 mm
11:34 12.4 °F /  -10.9 °C 7.1 °F /  -13.8 °C 29.77 in /  1008 hPa West 12.6 mph /  20.3 km/h 23.0 mph /  37 km/h 79 % 0.00 in /  0 mm
11:40 12.4 °F /  -10.9 °C 6.8 °F /  -14 °C 29.77 in /  1008 hPa WSW 10.6 mph /  17.1 km/h 16.1 mph /  25.9 km/h 78 % 0.00 in /  0 mm
11:45 12.3 °F /  -10.9 °C 6.5 °F /  -14.2 °C 29.77 in /  1008 hPa WSW 7.8 mph /  12.6 km/h 19.6 mph /  31.5 km/h 77 % 0.00 in /  0 mm
11:50 12.3 °F /  -10.9 °C 6.5 °F /  -14.2 °C 29.78 in /  1008.4 hPa WNW 10.0 mph /  16.1 km/h 20.7 mph /  33.3 km/h 77 % 0.00 in /  0 mm
11:54 12.3 °F /  -10.9 °C 6.7 °F /  -14.1 °C 29.77 in /  1008 hPa NW 10.8 mph /  17.4 km/h 19.6 mph /  31.5 km/h 78 % 0.00 in /  0 mm
11:59 12.5 °F /  -10.8 °C 7.2 °F /  -13.8 °C 29.77 in /  1008 hPa West 11.4 mph /  18.3 km/h 14.0 mph /  22.5 km/h 79 % 0.00 in /  0 mm
12:05 12.8 °F /  -10.7 °C 7.5 °F /  -13.6 °C 29.77 in /  1008 hPa West 12.2 mph /  19.6 km/h 18.4 mph /  29.6 km/h 79 % 0.00 in /  0 mm
12:09 13.0 °F /  -10.6 °C 7.1 °F /  -13.8 °C 29.78 in /  1008.4 hPa West 7.0 mph /  11.3 km/h 18.0 mph /  29 km/h 77 % 0.00 in /  0 mm
12:14 13.0 °F /  -10.6 °C 6.9 °F /  -13.9 °C 29.78 in /  1008.4 hPa NNW 9.2 mph /  14.8 km/h 18.4 mph /  29.6 km/h 76 % 0.00 in /  0 mm
12:17 13.0 °F /  -10.6 °C 7.1 °F /  -13.8 °C 29.77 in /  1008 hPa West 13.9 mph /  22.4 km/h 30.0 mph /  48.3 km/h 77 % 0.00 in /  0 mm
12:22 13.1 °F /  -10.5 °C 7.0 °F /  -13.9 °C 29.78 in /  1008.4 hPa WNW 13.6 mph /  21.9 km/h 25.3 mph /  40.7 km/h 76 % 0.00 in /  0 mm
12:27 13.1 °F /  -10.5 °C 7.0 °F /  -13.9 °C 29.77 in /  1008 hPa West 13.6 mph /  21.9 km/h 20.7 mph /  33.3 km/h 76 % 0.00 in /  0 mm
12:32 13.0 °F /  -10.6 °C 6.9 °F /  -13.9 °C 29.78 in /  1008.4 hPa WNW 8.6 mph /  13.8 km/h 16.1 mph /  25.9 km/h 76 % 0.00 in /  0 mm
12:37 13.2 °F /  -10.4 °C 6.8 °F /  -14 °C 29.78 in /  1008.4 hPa WSW 12.0 mph /  19.3 km/h 21.9 mph /  35.2 km/h 75 % 0.00 in /  0 mm
12:43 13.4 °F /  -10.3 °C 7.0 °F /  -13.9 °C 29.77 in /  1008 hPa West 10.0 mph /  16.1 km/h 17.3 mph /  27.8 km/h 75 % 0.00 in /  0 mm
12:46 13.5 °F /  -10.3 °C 7.0 °F /  -13.9 °C 29.77 in /  1008 hPa WNW 12.8 mph /  20.6 km/h 29.0 mph /  46.7 km/h 75 % 0.00 in /  0 mm
12:50 13.6 °F /  -10.2 °C 6.8 °F /  -14 °C 29.77 in /  1008 hPa NNW 11.5 mph /  18.5 km/h 23.0 mph /  37 km/h 74 % 0.00 in /  0 mm
12:53 13.7 °F /  -10.2 °C 6.6 °F /  -14.1 °C 29.77 in /  1008 hPa West 8.6 mph /  13.8 km/h 20.7 mph /  33.3 km/h 73 % 0.00 in /  0 mm
13:03 13.9 °F /  -10.1 °C 6.8 °F /  -14 °C 29.78 in /  1008.4 hPa WNW 14.6 mph /  23.5 km/h 20.7 mph /  33.3 km/h 73 % 0.00 in /  0 mm
13:07 13.9 °F /  -10.1 °C 7.1 °F /  -13.8 °C 29.78 in /  1008.4 hPa SW 12.2 mph /  19.6 km/h 27.6 mph /  44.4 km/h 74 % 0.00 in /  0 mm
13:12 14.0 °F /  -10 °C 6.9 °F /  -13.9 °C 29.78 in /  1008.4 hPa NW 12.8 mph /  20.6 km/h 20.0 mph /  32.2 km/h 73 % 0.00 in /  0 mm
13:13 14.0 °F /  -10 °C 6.9 °F /  -13.9 °C 29.78 in /  1008.4 hPa WNW 10.4 mph /  16.7 km/h 19.6 mph /  31.5 km/h 73 % 0.00 in /  0 mm
13:18 14.1 °F /  -9.9 °C 7.0 °F /  -13.9 °C 29.78 in /  1008.4 hPa West 12.7 mph /  20.4 km/h 20.7 mph /  33.3 km/h 73 % 0.00 in /  0 mm
13:21 14.2 °F /  -9.9 °C 6.8 °F /  -14 °C 29.78 in /  1008.4 hPa NW 14.1 mph /  22.7 km/h 26.5 mph /  42.6 km/h 72 % 0.00 in /  0 mm
13:26 14.1 °F /  -9.9 °C 6.7 °F /  -14.1 °C 29.78 in /  1008.4 hPa West 11.1 mph /  17.9 km/h 20.0 mph /  32.2 km/h 72 % 0.00 in /  0 mm
13:27 14.1 °F /  -9.9 °C 6.7 °F /  -14.1 °C 29.78 in /  1008.4 hPa NW 11.7 mph /  18.8 km/h 19.6 mph /  31.5 km/h 72 % 0.00 in /  0 mm
13:32 14.3 °F /  -9.8 °C 7.2 °F /  -13.8 °C 29.78 in /  1008.4 hPa WNW 15.4 mph /  24.8 km/h 21.9 mph /  35.2 km/h 73 % 0.00 in /  0 mm
13:37 14.3 °F /  -9.8 °C 6.6 °F /  -14.1 °C 29.79 in /  1008.7 hPa SW 11.0 mph /  17.7 km/h 19.6 mph /  31.5 km/h 71 % 0.00 in /  0 mm
13:42 14.4 °F /  -9.8 °C 7.3 °F /  -13.7 °C 29.78 in /  1008.4 hPa West 10.9 mph /  17.5 km/h 16.1 mph /  25.9 km/h 73 % 0.00 in /  0 mm
13:48 14.6 °F /  -9.7 °C 7.2 °F /  -13.8 °C 29.78 in /  1008.4 hPa SW 10.6 mph /  17.1 km/h 23.0 mph /  37 km/h 72 % 0.00 in /  0 mm
13:49 14.6 °F /  -9.7 °C 7.2 °F /  -13.8 °C 29.79 in /  1008.7 hPa WNW 13.0 mph /  20.9 km/h 19.6 mph /  31.5 km/h 72 % 0.00 in /  0 mm
13:50 14.5 °F /  -9.7 °C 6.8 °F /  -14 °C 29.79 in /  1008.7 hPa NW 10.9 mph /  17.5 km/h 18.4 mph /  29.6 km/h 71 % 0.00 in /  0 mm
13:55 14.4 °F /  -9.8 °C 6.7 °F /  -14.1 °C 29.79 in /  1008.7 hPa NW 10.2 mph /  16.4 km/h 27.6 mph /  44.4 km/h 71 % 0.00 in /  0 mm
14:00 14.4 °F /  -9.8 °C 6.1 °F /  -14.4 °C 29.80 in /  1009 hPa WNW 10.8 mph /  17.4 km/h 21.0 mph /  33.8 km/h 69 % 0.00 in /  0 mm
14:04 14.4 °F /  -9.8 °C 6.7 °F /  -14.1 °C 29.80 in /  1009 hPa NNW 12.3 mph /  19.8 km/h 19.6 mph /  31.5 km/h 71 % 0.00 in /  0 mm
14:09 14.5 °F /  -9.7 °C 6.8 °F /  -14 °C 29.80 in /  1009 hPa WNW 13.0 mph /  20.9 km/h 24.2 mph /  38.9 km/h 71 % 0.00 in /  0 mm
14:10 14.5 °F /  -9.7 °C 6.8 °F /  -14 °C 29.80 in /  1009 hPa WSW 7.1 mph /  11.4 km/h 19.6 mph /  31.5 km/h 71 % 0.00 in /  0 mm
14:11 14.5 °F /  -9.7 °C 6.8 °F /  -14 °C 29.80 in /  1009 hPa West 6.0 mph /  9.7 km/h 24.0 mph /  38.6 km/h 71 % 0.00 in /  0 mm
14:15 14.6 °F /  -9.7 °C 7.5 °F /  -13.6 °C 29.80 in /  1009 hPa WNW 6.4 mph /  10.3 km/h 16.1 mph /  25.9 km/h 73 % 0.00 in /  0 mm
14:16 14.6 °F /  -9.7 °C 7.2 °F /  -13.8 °C 29.80 in /  1009 hPa WSW 9.0 mph /  14.5 km/h 15.0 mph /  24.1 km/h 72 % 0.00 in /  0 mm
14:20 14.6 °F /  -9.7 °C 6.6 °F /  -14.1 °C 29.80 in /  1009 hPa WNW 9.0 mph /  14.5 km/h 14.0 mph /  22.5 km/h 70 % 0.00 in /  0 mm
14:25 14.5 °F /  -9.7 °C 6.2 °F /  -14.3 °C 29.81 in /  1009.4 hPa WNW 13.7 mph /  22 km/h 25.3 mph /  40.7 km/h 69 % 0.00 in /  0 mm
14:30 14.1 °F /  -9.9 °C 5.8 °F /  -14.6 °C 29.81 in /  1009.4 hPa SW 10.6 mph /  17.1 km/h 20.0 mph /  32.2 km/h 69 % 0.00 in /  0 mm
14:36 14.0 °F /  -10 °C 5.4 °F /  -14.8 °C 29.81 in /  1009.4 hPa North 8.7 mph /  14 km/h 16.1 mph /  25.9 km/h 68 % 0.00 in /  0 mm
14:41 13.9 °F /  -10.1 °C 5.9 °F /  -14.5 °C 29.81 in /  1009.4 hPa West 9.0 mph /  14.5 km/h 24.0 mph /  38.6 km/h 70 % 0.00 in /  0 mm
14:42 13.9 °F /  -10.1 °C 5.6 °F /  -14.7 °C 29.81 in /  1009.4 hPa WSW 9.5 mph /  15.3 km/h 17.3 mph /  27.8 km/h 69 % 0.00 in /  0 mm
14:47 13.7 °F /  -10.2 °C 5.4 °F /  -14.8 °C 29.81 in /  1009.4 hPa WSW 8.8 mph /  14.2 km/h 16.1 mph /  25.9 km/h 69 % 0.00 in /  0 mm
14:48 13.6 °F /  -10.2 °C 5.3 °F /  -14.8 °C 29.80 in /  1009 hPa WNW 9.8 mph /  15.8 km/h 19.0 mph /  30.6 km/h 69 % 0.00 in /  0 mm
14:53 13.5 °F /  -10.3 °C 5.2 °F /  -14.9 °C 29.82 in /  1009.7 hPa SW 11.2 mph /  18 km/h 24.2 mph /  38.9 km/h 69 % 0.00 in /  0 mm
14:58 13.4 °F /  -10.3 °C 5.1 °F /  -14.9 °C 29.82 in /  1009.7 hPa NW 14.7 mph /  23.7 km/h 26.0 mph /  41.8 km/h 69 % 0.00 in /  0 mm
15:08 13.5 °F /  -10.3 °C 4.9 °F /  -15.1 °C 29.82 in /  1009.7 hPa North 9.8 mph /  15.8 km/h 18.4 mph /  29.6 km/h 68 % 0.00 in /  0 mm
15:09 13.5 °F /  -10.3 °C 4.9 °F /  -15.1 °C 29.82 in /  1009.7 hPa West 6.4 mph /  10.3 km/h 17.0 mph /  27.4 km/h 68 % 0.00 in /  0 mm
15:12 13.5 °F /  -10.3 °C 5.2 °F /  -14.9 °C 29.82 in /  1009.7 hPa NNW 10.4 mph /  16.7 km/h 23.0 mph /  37 km/h 69 % 0.00 in /  0 mm
15:17 13.4 °F /  -10.3 °C 4.8 °F /  -15.1 °C 29.82 in /  1009.7 hPa NW 11.3 mph /  18.2 km/h 26.5 mph /  42.6 km/h 68 % 0.00 in /  0 mm
15:22 13.4 °F /  -10.3 °C 4.8 °F /  -15.1 °C 29.82 in /  1009.7 hPa West 6.7 mph /  10.8 km/h 18.4 mph /  29.6 km/h 68 % 0.00 in /  0 mm
15:27 13.4 °F /  -10.3 °C 4.8 °F /  -15.1 °C 29.83 in /  1010 hPa West 11.6 mph /  18.7 km/h 24.2 mph /  38.9 km/h 68 % 0.00 in /  0 mm
15:32 13.4 °F /  -10.3 °C 4.5 °F /  -15.3 °C 29.83 in /  1010 hPa WNW 13.0 mph /  20.9 km/h 26.5 mph /  42.6 km/h 67 % 0.00 in /  0 mm
15:34 13.4 °F /  -10.3 °C 4.8 °F /  -15.1 °C 29.83 in /  1010 hPa WNW 9.4 mph /  15.1 km/h 17.3 mph /  27.8 km/h 68 % 0.00 in /  0 mm
15:39 13.3 °F /  -10.4 °C 4.4 °F /  -15.3 °C 29.84 in /  1010.4 hPa WNW 6.2 mph /  10 km/h 27.6 mph /  44.4 km/h 67 % 0.00 in /  0 mm
15:44 13.3 °F /  -10.4 °C 4.7 °F /  -15.2 °C 29.84 in /  1010.4 hPa NW 12.1 mph /  19.5 km/h 19.6 mph /  31.5 km/h 68 % 0.00 in /  0 mm
15:45 13.4 °F /  -10.3 °C 4.8 °F /  -15.1 °C 29.85 in /  1010.7 hPa WNW 9.3 mph /  15 km/h 17.3 mph /  27.8 km/h 68 % 0.00 in /  0 mm
15:50 13.4 °F /  -10.3 °C 4.8 °F /  -15.1 °C 29.84 in /  1010.4 hPa WSW 5.3 mph /  8.5 km/h 10.0 mph /  16.1 km/h 68 % 0.00 in /  0 mm
15:52 13.4 °F /  -10.3 °C 4.8 °F /  -15.1 °C 29.84 in /  1010.4 hPa WNW 8.7 mph /  14 km/h 18.4 mph /  29.6 km/h 68 % 0.00 in /  0 mm
15:57 13.4 °F /  -10.3 °C 4.5 °F /  -15.3 °C 29.84 in /  1010.4 hPa WNW 10.8 mph /  17.4 km/h 21.9 mph /  35.2 km/h 67 % 0.00 in /  0 mm
16:03 13.4 °F /  -10.3 °C 4.5 °F /  -15.3 °C 29.85 in /  1010.7 hPa NW 12.0 mph /  19.3 km/h 13.8 mph /  22.2 km/h 67 % 0.00 in /  0 mm
16:08 13.3 °F /  -10.4 °C 4.1 °F /  -15.5 °C 29.85 in /  1010.7 hPa WSW 7.9 mph /  12.7 km/h 17.3 mph /  27.8 km/h 66 % 0.00 in /  0 mm
16:11 13.2 °F /  -10.4 °C 4.3 °F /  -15.4 °C 29.85 in /  1010.7 hPa West 5.1 mph /  8.2 km/h 12.7 mph /  20.4 km/h 67 % 0.00 in /  0 mm
16:17 13.2 °F /  -10.4 °C 4.3 °F /  -15.4 °C 29.85 in /  1010.7 hPa NNW 9.0 mph /  14.5 km/h 19.6 mph /  31.5 km/h 67 % 0.00 in /  0 mm
16:22 13.3 °F /  -10.4 °C 3.7 °F /  -15.7 °C 29.85 in /  1010.7 hPa SW 10.2 mph /  16.4 km/h 24.2 mph /  38.9 km/h 65 % 0.00 in /  0 mm
16:27 13.2 °F /  -10.4 °C 3.6 °F /  -15.8 °C 29.86 in /  1011.1 hPa WNW 14.0 mph /  22.5 km/h 25.3 mph /  40.7 km/h 65 % 0.00 in /  0 mm
16:32 13.2 °F /  -10.4 °C 4.0 °F /  -15.6 °C 29.86 in /  1011.1 hPa WSW 11.2 mph /  18 km/h 13.8 mph /  22.2 km/h 66 % 0.00 in /  0 mm
16:37 13.2 °F /  -10.4 °C 4.0 °F /  -15.6 °C 29.86 in /  1011.1 hPa SW 14.3 mph /  23 km/h 28.8 mph /  46.3 km/h 66 % 0.00 in /  0 mm
16:42 13.1 °F /  -10.5 °C 3.2 °F /  -16 °C 29.85 in /  1010.7 hPa WSW 12.3 mph /  19.8 km/h 26.5 mph /  42.6 km/h 64 % 0.00 in /  0 mm
16:47 13.0 °F /  -10.6 °C 3.4 °F /  -15.9 °C 29.86 in /  1011.1 hPa West 13.1 mph /  21.1 km/h 31.1 mph /  50 km/h 65 % 0.00 in /  0 mm
16:50 13.0 °F /  -10.6 °C 4.1 °F /  -15.5 °C 29.86 in /  1011.1 hPa WSW 8.9 mph /  14.3 km/h 20.7 mph /  33.3 km/h 67 % 0.00 in /  0 mm
16:55 13.0 °F /  -10.6 °C 3.8 °F /  -15.7 °C 29.87 in /  1011.4 hPa SW 9.6 mph /  15.4 km/h 17.0 mph /  27.4 km/h 66 % 0.00 in /  0 mm
16:59 13.0 °F /  -10.6 °C 3.8 °F /  -15.7 °C 29.87 in /  1011.4 hPa NW 10.4 mph /  16.7 km/h 17.0 mph /  27.4 km/h 66 % 0.00 in /  0 mm
17:04 13.1 °F /  -10.5 °C 4.2 °F /  -15.4 °C 29.87 in /  1011.4 hPa SSE 12.1 mph /  19.5 km/h 21.9 mph /  35.2 km/h 67 % 0.00 in /  0 mm
17:09 13.1 °F /  -10.5 °C 3.9 °F /  -15.6 °C 29.87 in /  1011.4 hPa WNW 10.3 mph /  16.6 km/h 19.6 mph /  31.5 km/h 66 % 0.00 in /  0 mm
17:14 13.1 °F /  -10.5 °C 3.5 °F /  -15.8 °C 29.88 in /  1011.7 hPa WNW 12.6 mph /  20.3 km/h 21.0 mph /  33.8 km/h 65 % 0.00 in /  0 mm
17:19 13.2 °F /  -10.4 °C 4.0 °F /  -15.6 °C 29.89 in /  1012.1 hPa WSW 16.1 mph /  25.9 km/h 26.5 mph /  42.6 km/h 66 % 0.00 in /  0 mm
17:22 13.2 °F /  -10.4 °C 4.0 °F /  -15.6 °C 29.88 in /  1011.7 hPa West 10.2 mph /  16.4 km/h 27.6 mph /  44.4 km/h 66 % 0.00 in /  0 mm
17:26 13.3 °F /  -10.4 °C 4.1 °F /  -15.5 °C 29.88 in /  1011.7 hPa WNW 15.0 mph /  24.1 km/h 28.0 mph /  45.1 km/h 66 % 0.00 in /  0 mm
17:31 13.3 °F /  -10.4 °C 4.4 °F /  -15.3 °C 29.89 in /  1012.1 hPa West 10.2 mph /  16.4 km/h 26.5 mph /  42.6 km/h 67 % 0.00 in /  0 mm
17:36 13.3 °F /  -10.4 °C 4.4 °F /  -15.3 °C 29.89 in /  1012.1 hPa NNW 12.0 mph /  19.3 km/h 19.6 mph /  31.5 km/h 67 % 0.00 in /  0 mm
17:40 13.3 °F /  -10.4 °C 3.7 °F /  -15.7 °C 29.89 in /  1012.1 hPa NNW 15.1 mph /  24.3 km/h 24.2 mph /  38.9 km/h 65 % 0.00 in /  0 mm
17:45 13.3 °F /  -10.4 °C 3.4 °F /  -15.9 °C 29.91 in /  1012.8 hPa West 14.2 mph /  22.9 km/h 22.0 mph /  35.4 km/h 64 % 0.00 in /  0 mm
17:47 13.3 °F /  -10.4 °C 3.0 °F /  -16.1 °C 29.90 in /  1012.4 hPa WNW 14.7 mph /  23.7 km/h 24.2 mph /  38.9 km/h 63 % 0.00 in /  0 mm
17:50 13.2 °F /  -10.4 °C 3.6 °F /  -15.8 °C 29.90 in /  1012.4 hPa WNW 5.8 mph /  9.3 km/h 13.8 mph /  22.2 km/h 65 % 0.00 in /  0 mm
17:55 13.2 °F /  -10.4 °C 3.3 °F /  -15.9 °C 29.90 in /  1012.4 hPa WSW 10.7 mph /  17.2 km/h 23.0 mph /  37 km/h 64 % 0.00 in /  0 mm
17:56 13.2 °F /  -10.4 °C 3.3 °F /  -15.9 °C 29.90 in /  1012.4 hPa WNW 12.0 mph /  19.3 km/h 23.0 mph /  37 km/h 64 % 0.00 in /  0 mm
18:01 13.2 °F /  -10.4 °C 3.3 °F /  -15.9 °C 29.91 in /  1012.8 hPa West 6.2 mph /  10 km/h 21.9 mph /  35.2 km/h 64 % 0.00 in /  0 mm
18:06 13.1 °F /  -10.5 °C 2.9 °F /  -16.2 °C 29.91 in /  1012.8 hPa WSW 11.6 mph /  18.7 km/h 21.9 mph /  35.2 km/h 63 % 0.00 in /  0 mm
18:10 13.0 °F /  -10.6 °C 2.4 °F /  -16.4 °C 29.91 in /  1012.8 hPa WNW 9.8 mph /  15.8 km/h 19.6 mph /  31.5 km/h 62 % 0.00 in /  0 mm
18:15 13.0 °F /  -10.6 °C 2.4 °F /  -16.4 °C 29.91 in /  1012.8 hPa NW 8.4 mph /  13.5 km/h 16.1 mph /  25.9 km/h 62 % 0.00 in /  0 mm
18:25 13.0 °F /  -10.6 °C 3.4 °F /  -15.9 °C 29.92 in /  1013.1 hPa WNW 8.3 mph /  13.4 km/h 21.9 mph /  35.2 km/h 65 % 0.00 in /  0 mm
18:31 13.1 °F /  -10.5 °C 3.9 °F /  -15.6 °C 29.92 in /  1013.1 hPa WNW 7.0 mph /  11.3 km/h 18.0 mph /  29 km/h 66 % 0.00 in /  0 mm
18:36 13.1 °F /  -10.5 °C 3.2 °F /  -16 °C 29.92 in /  1013.1 hPa WNW 8.9 mph /  14.3 km/h 24.2 mph /  38.9 km/h 64 % 0.00 in /  0 mm
18:41 13.0 °F /  -10.6 °C 3.1 °F /  -16.1 °C 29.93 in /  1013.4 hPa NW 11.4 mph /  18.3 km/h 23.0 mph /  37 km/h 64 % 0.00 in /  0 mm
18:46 13.1 °F /  -10.5 °C 3.2 °F /  -16 °C 29.93 in /  1013.4 hPa WNW 5.4 mph /  8.7 km/h 11.5 mph /  18.5 km/h 64 % 0.00 in /  0 mm
18:51 13.0 °F /  -10.6 °C 3.1 °F /  -16.1 °C 29.94 in /  1013.8 hPa WNW 10.2 mph /  16.4 km/h 19.6 mph /  31.5 km/h 64 % 0.00 in /  0 mm
18:54 13.0 °F /  -10.6 °C 2.8 °F /  -16.2 °C 29.94 in /  1013.8 hPa WSW 14.2 mph /  22.9 km/h 19.6 mph /  31.5 km/h 63 % 0.00 in /  0 mm
18:59 12.9 °F /  -10.6 °C 2.7 °F /  -16.3 °C 29.94 in /  1013.8 hPa WNW 11.3 mph /  18.2 km/h 23.0 mph /  37 km/h 63 % 0.00 in /  0 mm
19:04 12.8 °F /  -10.7 °C 2.6 °F /  -16.3 °C 29.94 in /  1013.8 hPa SW 11.2 mph /  18 km/h 19.6 mph /  31.5 km/h 63 % 0.00 in /  0 mm
19:07 12.7 °F /  -10.7 °C 2.5 °F /  -16.4 °C 29.94 in /  1013.8 hPa NW 15.3 mph /  24.6 km/h 24.2 mph /  38.9 km/h 63 % 0.00 in /  0 mm
19:12 12.7 °F /  -10.7 °C 2.5 °F /  -16.4 °C 29.94 in /  1013.8 hPa West 10.0 mph /  16.1 km/h 19.6 mph /  31.5 km/h 63 % 0.00 in /  0 mm
19:13 12.7 °F /  -10.7 °C 2.5 °F /  -16.4 °C 29.94 in /  1013.8 hPa NW 9.9 mph /  15.9 km/h 19.6 mph /  31.5 km/h 63 % 0.00 in /  0 mm
19:18 12.7 °F /  -10.7 °C 2.5 °F /  -16.4 °C 29.94 in /  1013.8 hPa WNW 10.5 mph /  16.9 km/h 19.6 mph /  31.5 km/h 63 % 0.00 in /  0 mm
19:23 12.7 °F /  -10.7 °C 2.8 °F /  -16.2 °C 29.94 in /  1013.8 hPa West 9.6 mph /  15.4 km/h 21.9 mph /  35.2 km/h 64 % 0.00 in /  0 mm
19:26 12.8 °F /  -10.7 °C 3.2 °F /  -16 °C 29.95 in /  1014.1 hPa SSW 8.9 mph /  14.3 km/h 20.0 mph /  32.2 km/h 65 % 0.00 in /  0 mm
19:31 12.8 °F /  -10.7 °C 2.6 °F /  -16.3 °C 29.95 in /  1014.1 hPa SW 10.4 mph /  16.7 km/h 19.6 mph /  31.5 km/h 63 % 0.00 in /  0 mm
19:34 12.8 °F /  -10.7 °C 2.9 °F /  -16.2 °C 29.95 in /  1014.1 hPa West 7.9 mph /  12.7 km/h 19.6 mph /  31.5 km/h 64 % 0.00 in /  0 mm
19:39 12.7 °F /  -10.7 °C 2.8 °F /  -16.2 °C 29.95 in /  1014.1 hPa NNW 11.8 mph /  19 km/h 18.4 mph /  29.6 km/h 64 % 0.00 in /  0 mm
19:42 12.7 °F /  -10.7 °C 2.8 °F /  -16.2 °C 29.95 in /  1014.1 hPa WSW 10.8 mph /  17.4 km/h 23.0 mph /  37 km/h 64 % 0.00 in /  0 mm
19:47 12.7 °F /  -10.7 °C 2.8 °F /  -16.2 °C 29.95 in /  1014.1 hPa WSW 9.2 mph /  14.8 km/h 28.8 mph /  46.3 km/h 64 % 0.00 in /  0 mm
19:49 12.6 °F /  -10.8 °C 2.4 °F /  -16.4 °C 29.95 in /  1014.1 hPa West 8.2 mph /  13.2 km/h 16.1 mph /  25.9 km/h 63 % 0.00 in /  0 mm
19:55 12.6 °F /  -10.8 °C 3.1 °F /  -16.1 °C 29.95 in /  1014.1 hPa West 6.7 mph /  10.8 km/h 16.1 mph /  25.9 km/h 65 % 0.00 in /  0 mm
20:00 12.5 °F /  -10.8 °C 3.0 °F /  -16.1 °C 29.96 in /  1014.4 hPa WNW 8.4 mph /  13.5 km/h 19.6 mph /  31.5 km/h 65 % 0.00 in /  0 mm
20:05 12.5 °F /  -10.8 °C 3.0 °F /  -16.1 °C 29.96 in /  1014.4 hPa WNW 10.7 mph /  17.2 km/h 18.4 mph /  29.6 km/h 65 % 0.00 in /  0 mm
20:07 12.5 °F /  -10.8 °C 3.3 °F /  -15.9 °C 29.96 in /  1014.4 hPa SW 10.6 mph /  17.1 km/h 21.0 mph /  33.8 km/h 66 % 0.00 in /  0 mm
20:12 12.5 °F /  -10.8 °C 2.6 °F /  -16.3 °C 29.96 in /  1014.4 hPa SW 10.9 mph /  17.5 km/h 18.4 mph /  29.6 km/h 64 % 0.00 in /  0 mm
20:13 12.4 °F /  -10.9 °C 2.5 °F /  -16.4 °C 29.97 in /  1014.8 hPa NW 12.4 mph /  20 km/h 19.6 mph /  31.5 km/h 64 % 0.00 in /  0 mm
20:18 12.3 °F /  -10.9 °C 2.4 °F /  -16.4 °C 29.98 in /  1015.1 hPa NW 17.7 mph /  28.5 km/h 31.1 mph /  50 km/h 64 % 0.00 in /  0 mm
20:23 12.3 °F /  -10.9 °C 2.1 °F /  -16.6 °C 29.97 in /  1014.8 hPa NW 11.7 mph /  18.8 km/h 24.0 mph /  38.6 km/h 63 % 0.00 in /  0 mm
20:26 12.2 °F /  -11 °C 1.7 °F /  -16.8 °C 29.97 in /  1014.8 hPa NW 10.1 mph /  16.3 km/h 20.7 mph /  33.3 km/h 62 % 0.00 in /  0 mm
20:27 12.2 °F /  -11 °C 2.0 °F /  -16.7 °C 29.97 in /  1014.8 hPa NW 10.2 mph /  16.4 km/h 21.9 mph /  35.2 km/h 63 % 0.00 in /  0 mm
20:32 12.2 °F /  -11 °C 2.0 °F /  -16.7 °C 29.96 in /  1014.4 hPa WNW 10.6 mph /  17.1 km/h 19.6 mph /  31.5 km/h 63 % 0.00 in /  0 mm
20:34 12.2 °F /  -11 °C 1.7 °F /  -16.8 °C 29.97 in /  1014.8 hPa WNW 10.4 mph /  16.7 km/h 18.4 mph /  29.6 km/h 62 % 0.00 in /  0 mm
20:39 12.1 °F /  -11.1 °C 1.6 °F /  -16.9 °C 29.97 in /  1014.8 hPa NNW 8.0 mph /  12.9 km/h 25.3 mph /  40.7 km/h 62 % 0.00 in /  0 mm
20:40 12.1 °F /  -11.1 °C 1.6 °F /  -16.9 °C 29.97 in /  1014.8 hPa SW 7.0 mph /  11.3 km/h 25.3 mph /  40.7 km/h 62 % 0.00 in /  0 mm
20:45 12.1 °F /  -11.1 °C 1.9 °F /  -16.7 °C 29.97 in /  1014.8 hPa SW 11.8 mph /  19 km/h 23.0 mph /  37 km/h 63 % 0.00 in /  0 mm
20:50 12.0 °F /  -11.1 °C 1.8 °F /  -16.8 °C 29.98 in /  1015.1 hPa West 9.2 mph /  14.8 km/h 20.7 mph /  33.3 km/h 63 % 0.00 in /  0 mm
20:55 12.0 °F /  -11.1 °C 1.5 °F /  -16.9 °C 29.98 in /  1015.1 hPa NW 11.9 mph /  19.2 km/h 25.3 mph /  40.7 km/h 62 % 0.00 in /  0 mm
20:59 12.1 °F /  -11.1 °C 1.9 °F /  -16.7 °C 29.98 in /  1015.1 hPa WSW 5.2 mph /  8.4 km/h 10.4 mph /  16.7 km/h 63 % 0.00 in /  0 mm
21:04 12.0 °F /  -11.1 °C 1.8 °F /  -16.8 °C 29.99 in /  1015.5 hPa West 14.2 mph /  22.9 km/h 25.3 mph /  40.7 km/h 63 % 0.00 in /  0 mm
21:09 12.0 °F /  -11.1 °C 1.8 °F /  -16.8 °C 29.99 in /  1015.5 hPa West 10.9 mph /  17.5 km/h 21.9 mph /  35.2 km/h 63 % 0.00 in /  0 mm
21:10 12.0 °F /  -11.1 °C 2.1 °F /  -16.6 °C 29.99 in /  1015.5 hPa WSW 11.1 mph /  17.9 km/h 15.0 mph /  24.1 km/h 64 % 0.00 in /  0 mm
21:15 12.0 °F /  -11.1 °C 2.5 °F /  -16.4 °C 29.99 in /  1015.5 hPa WNW 10.3 mph /  16.6 km/h 19.6 mph /  31.5 km/h 65 % 0.00 in /  0 mm
21:20 12.0 °F /  -11.1 °C 2.1 °F /  -16.6 °C 29.99 in /  1015.5 hPa WSW 11.7 mph /  18.8 km/h 18.4 mph /  29.6 km/h 64 % 0.00 in /  0 mm
21:25 11.9 °F /  -11.2 °C 1.7 °F /  -16.8 °C 29.99 in /  1015.5 hPa West 11.2 mph /  18 km/h 19.6 mph /  31.5 km/h 63 % 0.00 in /  0 mm
21:30 11.8 °F /  -11.2 °C 1.6 °F /  -16.9 °C 30.00 in /  1015.8 hPa NW 7.0 mph /  11.3 km/h 18.0 mph /  29 km/h 63 % 0.00 in /  0 mm
21:31 11.8 °F /  -11.2 °C 1.6 °F /  -16.9 °C 29.99 in /  1015.5 hPa West 9.2 mph /  14.8 km/h 18.4 mph /  29.6 km/h 63 % 0.00 in /  0 mm
21:36 11.7 °F /  -11.3 °C 1.5 °F /  -16.9 °C 30.00 in /  1015.8 hPa WNW 14.3 mph /  23 km/h 26.5 mph /  42.6 km/h 63 % 0.00 in /  0 mm
21:41 11.6 °F /  -11.3 °C 0.7 °F /  -17.4 °C 29.99 in /  1015.5 hPa WNW 10.8 mph /  17.4 km/h 19.6 mph /  31.5 km/h 61 % 0.00 in /  0 mm
21:46 11.5 °F /  -11.4 °C 1.0 °F /  -17.2 °C 30.00 in /  1015.8 hPa WNW 10.1 mph /  16.3 km/h 19.6 mph /  31.5 km/h 62 % 0.00 in /  0 mm
21:49 11.5 °F /  -11.4 °C 1.0 °F /  -17.2 °C 30.00 in /  1015.8 hPa WSW 6.8 mph /  10.9 km/h 19.6 mph /  31.5 km/h 62 % 0.00 in /  0 mm
21:54 11.5 °F /  -11.4 °C 1.7 °F /  -16.8 °C 30.00 in /  1015.8 hPa West 5.1 mph /  8.2 km/h 15.0 mph /  24.1 km/h 64 % 0.00 in /  0 mm
21:59 11.4 °F /  -11.4 °C 1.2 °F /  -17.1 °C 30.00 in /  1015.8 hPa SW 11.8 mph /  19 km/h 16.1 mph /  25.9 km/h 63 % 0.00 in /  0 mm
22:04 11.4 °F /  -11.4 °C 1.2 °F /  -17.1 °C 30.01 in /  1016.1 hPa NW 12.6 mph /  20.3 km/h 19.6 mph /  31.5 km/h 63 % 0.00 in /  0 mm
22:09 11.3 °F /  -11.5 °C 1.1 °F /  -17.2 °C 30.00 in /  1015.8 hPa NW 12.6 mph /  20.3 km/h 22.0 mph /  35.4 km/h 63 % 0.00 in /  0 mm
22:14 11.3 °F /  -11.5 °C 1.1 °F /  -17.2 °C 30.00 in /  1015.8 hPa WNW 5.6 mph /  9 km/h 16.1 mph /  25.9 km/h 63 % 0.00 in /  0 mm
22:17 11.3 °F /  -11.5 °C 1.5 °F /  -16.9 °C 30.01 in /  1016.1 hPa WSW 9.6 mph /  15.4 km/h 18.0 mph /  29 km/h 64 % 0.00 in /  0 mm
22:22 11.2 °F /  -11.6 °C 1.0 °F /  -17.2 °C 30.01 in /  1016.1 hPa WNW 8.3 mph /  13.4 km/h 20.0 mph /  32.2 km/h 63 % 0.00 in /  0 mm
22:27 11.1 °F /  -11.6 °C 0.6 °F /  -17.4 °C 30.01 in /  1016.1 hPa WNW 9.5 mph /  15.3 km/h 15.0 mph /  24.1 km/h 62 % 0.00 in /  0 mm
22:32 11.0 °F /  -11.7 °C 0.5 °F /  -17.5 °C 30.01 in /  1016.1 hPa WNW 7.4 mph /  11.9 km/h 15.0 mph /  24.1 km/h 62 % 0.00 in /  0 mm
22:37 10.8 °F /  -11.8 °C 0.7 °F /  -17.4 °C 30.01 in /  1016.1 hPa West 6.7 mph /  10.8 km/h 16.1 mph /  25.9 km/h 63 % 0.00 in /  0 mm
22:41 10.8 °F /  -11.8 °C 1.0 °F /  -17.2 °C 30.01 in /  1016.1 hPa WNW 13.9 mph /  22.4 km/h 20.7 mph /  33.3 km/h 64 % 0.00 in /  0 mm
22:46 10.7 °F /  -11.8 °C 0.2 °F /  -17.7 °C 30.01 in /  1016.1 hPa WSW 12.8 mph /  20.6 km/h 20.7 mph /  33.3 km/h 62 % 0.00 in /  0 mm
22:51 10.6 °F /  -11.9 °C -0.2 °F /  -17.9 °C 30.02 in /  1016.5 hPa NW 12.2 mph /  19.6 km/h 19.6 mph /  31.5 km/h 61 % 0.00 in /  0 mm
22:56 10.6 °F /  -11.9 °C -0.2 °F /  -17.9 °C 30.02 in /  1016.5 hPa West 6.7 mph /  10.8 km/h 15.0 mph /  24.1 km/h 61 % 0.00 in /  0 mm
23:01 10.6 °F /  -11.9 °C 0.1 °F /  -17.7 °C 30.02 in /  1016.5 hPa West 7.0 mph /  11.3 km/h 20.7 mph /  33.3 km/h 62 % 0.00 in /  0 mm
23:06 10.6 °F /  -11.9 °C 0.1 °F /  -17.7 °C 30.02 in /  1016.5 hPa SW 9.3 mph /  15 km/h 13.8 mph /  22.2 km/h 62 % 0.00 in /  0 mm
23:11 10.5 °F /  -11.9 °C -0.3 °F /  -17.9 °C 30.02 in /  1016.5 hPa NW 9.2 mph /  14.8 km/h 19.6 mph /  31.5 km/h 61 % 0.00 in /  0 mm
23:16 10.6 °F /  -11.9 °C 0.1 °F /  -17.7 °C 30.02 in /  1016.5 hPa West 7.8 mph /  12.6 km/h 19.0 mph /  30.6 km/h 62 % 0.00 in /  0 mm
23:22 10.5 °F /  -11.9 °C 0.0 °F /  -17.8 °C 30.02 in /  1016.5 hPa WSW 7.6 mph /  12.2 km/h 15.0 mph /  24.1 km/h 62 % 0.00 in /  0 mm
23:27 10.5 °F /  -11.9 °C 0.0 °F /  -17.8 °C 30.03 in /  1016.8 hPa SW 7.5 mph /  12.1 km/h 18.4 mph /  29.6 km/h 62 % 0.00 in /  0 mm
23:32 10.5 °F /  -11.9 °C -0.3 °F /  -17.9 °C 30.02 in /  1016.5 hPa SW 8.8 mph /  14.2 km/h 13.8 mph /  22.2 km/h 61 % 0.00 in /  0 mm
23:37 10.4 °F /  -12 °C -0.1 °F /  -17.8 °C 30.02 in /  1016.5 hPa West 9.1 mph /  14.6 km/h 19.6 mph /  31.5 km/h 62 % 0.00 in /  0 mm
23:42 10.4 °F /  -12 °C -0.1 °F /  -17.8 °C 30.03 in /  1016.8 hPa WSW 13.1 mph /  21.1 km/h 26.0 mph /  41.8 km/h 62 % 0.00 in /  0 mm
23:45 10.3 °F /  -12.1 °C -0.2 °F /  -17.9 °C 30.03 in /  1016.8 hPa West 7.9 mph /  12.7 km/h 11.5 mph /  18.5 km/h 62 % 0.00 in /  0 mm
23:50 10.3 °F /  -12.1 °C 0.2 °F /  -17.7 °C 30.03 in /  1016.8 hPa WSW 4.9 mph /  7.9 km/h 15.0 mph /  24.1 km/h 63 % 0.00 in /  0 mm
23:55 10.3 °F /  -12.1 °C 0.2 °F /  -17.7 °C 30.03 in /  1016.8 hPa WNW 12.2 mph /  19.6 km/h 21.9 mph /  35.2 km/h 63 % 0.00 in /  0 mm
Crab Meadow Weather
Compliments of Weather Underground - 3.25 mb

Script developed by  Jim McMurry - jmcmurry@mwt.net Adapted for the template by  Wim van der Kuil - Leuven-Template.eu

Weather Terms: Dense Fog Advisory - Widespread dense fog reducing visibility to less than 1/4 mile.